Demopolis Municipal Airport, AL

9:42 AM CST on November 12, 2019 (GMT -0600)
Demopolis Municipal Airport

Weather History for KDYA - September, 2019

Change the Weather History Date:

Tuesday, September 3, 2019

  Actual Average (WUND) Record (WUND)
Temperature  
Mean Temperature 82 °F -  
Max Temperature 93 °F - - (-1)
Min Temperature 70 °F - - (-1)
Cooling Degree Days 16    
Growing Degree Days 32 (Base 50)    
Moisture  
Dew Point 70 °F    
Average Humidity 68    
Maximum Humidity 100    
Minimum Humidity 39    
Precipitation  
Precipitation 0.00 in - - ()
Sea Level Pressure  
Sea Level Pressure 29.96 in    
Wind  
Wind Speed 1 mph ()    
Max Wind Speed 7 mph    
Max Gust Speed -    
Visibility 7.7 miles    
Events      
Averages and records for this station are not official NWS values.
T = Trace of Precipitation, MM = Missing Value Source: Averaged Metar Reports

Daily Weather History Graph

Daily Weather History Graph

Search for Another Location

Airport or City:

Astronomy

Sep. 03, 2019 Rise Set
Actual Time 6:27 AM CDT 7:13 PM CDT
Civil Twilight 6:02 AM CDT 7:38 PM CDT
Nautical Twilight 5:33 AM CDT 8:08 PM CDT
Astronomical Twilight 5:03 AM CDT 8:38 PM CDT
Moon 11:04 AM CDT (9/3) 10:28 PM CDT (9/3)
Length of Visible Light 13h 35m
Length of Day
12h 46m
Waxing Crescent, 25% of the Moon is Illuminated
Sep 3
Waxing Crescent
Sep 5
First Quarter
Sep 13
Full
Sep 21
Last Quarter
Sep 28
New

Hourly Weather History & Observations

Time (CDT) Temp. Heat Index Dew Point Humidity Pressure Visibility Wind Dir Wind Speed Gust Speed Precip Events Conditions
12:15 AM 72.1 °F - 71.6 °F 98% 29.97 in 7.0 mi Calm Calm - N/A   Clear
12:35 AM 71.8 °F - 71.6 °F 99% 29.97 in 7.0 mi Calm Calm - N/A   Clear
12:55 AM 70.7 °F - 70.7 °F 100% 29.96 in 7.0 mi Calm Calm - N/A   Clear
1:15 AM 70.9 °F - 70.9 °F 100% 29.96 in 7.0 mi Calm Calm - N/A   Clear
1:35 AM 70.9 °F - 70.9 °F 100% 29.96 in 7.0 mi Calm Calm - N/A   Clear
1:55 AM 70.7 °F - 70.7 °F 100% 29.95 in 7.0 mi Calm Calm - N/A   Clear
2:15 AM 70.7 °F - 70.7 °F 100% 29.95 in 7.0 mi Calm Calm - N/A   Clear
2:35 AM - - - N/A% 29.95 in 5.0 mi Calm Calm - N/A   Clear
2:55 AM - - - N/A% 29.94 in 5.0 mi Calm Calm - N/A   Haze
3:15 AM - - - N/A% 29.95 in 7.0 mi Calm Calm - N/A   Clear
3:35 AM - - - N/A% 29.95 in 5.0 mi Calm Calm - N/A   Haze
3:55 AM - - - N/A% 29.94 in 5.0 mi Calm Calm - N/A   Haze
4:15 AM - - - N/A% 29.94 in 7.0 mi Calm Calm - N/A   Clear
4:35 AM - - - N/A% 29.94 in 5.0 mi Calm Calm - N/A   Haze
4:55 AM - - - N/A% 29.94 in 7.0 mi Calm Calm - N/A   Clear
5:15 AM - - - N/A% 29.95 in 7.0 mi Calm Calm - N/A   Clear
5:35 AM - - - N/A% 29.95 in 7.0 mi Calm Calm - N/A   Clear
5:55 AM - - - N/A% 29.96 in 4.0 mi Calm Calm - N/A   Haze
6:15 AM - - - N/A% 29.97 in 5.0 mi Calm Calm - N/A   Haze
6:35 AM - - - N/A% 29.98 in 7.0 mi Calm Calm - N/A   Clear
6:55 AM - - - N/A% 29.98 in 7.0 mi Calm Calm - N/A   Clear
7:15 AM - - - N/A% 29.99 in 5.0 mi Calm Calm - N/A   Haze
7:35 AM - - - N/A% 29.99 in 5.0 mi Calm Calm - N/A   Haze
7:55 AM - - - N/A% 29.99 in 5.0 mi Calm Calm - N/A   Haze
8:15 AM 73.8 °F - 73.6 °F 99% 30.00 in 5.0 mi Calm Calm - N/A   Clear
8:35 AM 76.8 °F - 72.1 °F 85% 30.00 in 7.0 mi Calm Calm - N/A   Clear
9:15 AM 81.5 °F 85.7 °F 71.4 °F 71% 30.01 in 7.0 mi East 4.6 mph - N/A   Clear
9:35 AM 83.5 °F 87.7 °F 70.3 °F 64% 30.01 in 7.0 mi ENE 3.5 mph - N/A   Clear
9:55 AM 84.7 °F 89.1 °F 70.0 °F 61% 30.01 in 7.0 mi NE 3.5 mph - N/A   Clear
10:15 AM 86.0 °F 90.7 °F 70.2 °F 59% 30.01 in 7.0 mi ENE 3.5 mph - N/A   Clear
10:35 AM 87.3 °F 92.0 °F 69.8 °F 56% 30.01 in 10.0 mi Calm Calm - N/A   Clear
10:55 AM 88.2 °F 92.9 °F 69.4 °F 54% 30.01 in 7.0 mi ENE 4.6 mph - N/A   Clear
11:15 AM 88.9 °F 92.6 °F 68.2 °F 50% 30.01 in 5.0 mi SE 4.6 mph - N/A   Haze
11:35 AM 89.2 °F 93.2 °F 68.5 °F 50% 30.00 in 5.0 mi Calm Calm - N/A   Haze
11:55 AM 89.8 °F 94.2 °F 68.9 °F 50% 30.00 in 7.0 mi SE 3.5 mph - N/A   Clear
12:15 PM 91.2 °F 96.5 °F 69.8 °F 49% 29.99 in 7.0 mi NNE 3.5 mph - N/A   Clear
12:35 PM 91.4 °F 95.4 °F 68.2 °F 46% 29.99 in 7.0 mi East 4.6 mph - N/A   Clear
12:55 PM 92.3 °F 95.6 °F 66.9 °F 43% 29.99 in 10.0 mi Calm Calm - N/A   Clear
1:15 PM 92.1 °F 96.7 °F 68.9 °F 46% 29.98 in 10.0 mi Calm Calm - N/A   Scattered Clouds
1:35 PM 92.8 °F 96.6 °F 67.5 °F 43% 29.97 in 10.0 mi North 5.8 mph - N/A   Scattered Clouds
2:15 PM 93.6 °F 96.9 °F 66.4 °F 41% 29.96 in 10.0 mi ENE 4.6 mph - N/A   Clear
2:35 PM 93.0 °F 95.9 °F 65.8 °F 41% 29.95 in 10.0 mi North 5.8 mph - N/A   Clear
2:55 PM 93.0 °F 95.5 °F 65.1 °F 40% 29.94 in 10.0 mi NNW 3.5 mph - N/A   Clear
3:15 PM 93.6 °F 95.9 °F 65.5 °F 39% 29.94 in 10.0 mi NNE 5.8 mph - N/A   Clear
3:35 PM 93.4 °F 96.6 °F 66.2 °F 41% 29.93 in 10.0 mi NNE 6.9 mph - N/A   Clear
3:55 PM 93.4 °F 96.6 °F 66.6 °F 41% 29.93 in 10.0 mi North 6.9 mph - N/A   Clear
4:15 PM 93.7 °F 97.2 °F 66.6 °F 41% 29.92 in 10.0 mi North 3.5 mph - N/A   Clear
4:35 PM 93.0 °F 95.5 °F 65.7 °F 40% 29.93 in 10.0 mi North 4.6 mph - N/A   Clear
4:55 PM 92.8 °F 95.2 °F 65.5 °F 40% 29.92 in 10.0 mi North 4.6 mph - N/A   Clear
5:15 PM 93.0 °F 95.5 °F 65.7 °F 40% 29.92 in 10.0 mi NNE 4.6 mph - N/A   Clear
5:55 PM 91.8 °F 95.5 °F 67.6 °F 45% 29.92 in 10.0 mi North 4.6 mph - N/A   Clear
6:15 PM 90.7 °F 95.0 °F 68.7 °F 48% 29.92 in 10.0 mi Calm Calm - N/A   Clear
6:35 PM 89.8 °F 95.6 °F 70.3 °F 53% 29.93 in 7.0 mi Calm Calm - N/A   Clear
6:55 PM 86.9 °F 94.1 °F 72.9 °F 63% 29.93 in 7.0 mi Calm Calm - N/A   Clear
7:15 PM 83.7 °F 90.1 °F 73.4 °F 71% 29.94 in 10.0 mi Calm Calm - N/A   Clear
7:35 PM 81.7 °F 86.7 °F 72.9 °F 74% 29.94 in 10.0 mi Calm Calm - N/A   Clear
7:55 PM 80.6 °F 85.0 °F 72.9 °F 77% 29.94 in 10.0 mi Calm Calm - N/A   Clear
8:15 PM 79.2 °F - 73.4 °F 82% 29.94 in 10.0 mi Calm Calm - N/A   Clear
8:35 PM 78.8 °F - 73.8 °F 84% 29.95 in 10.0 mi Calm Calm - N/A   Scattered Clouds
8:55 PM 78.3 °F - 73.8 °F 86% 29.96 in 10.0 mi Calm Calm - N/A   Scattered Clouds
9:15 PM 77.9 °F - 74.8 °F 90% 29.96 in 7.0 mi Calm Calm - N/A   Scattered Clouds
9:35 PM 77.9 °F - 74.1 °F 88% 29.96 in 10.0 mi Calm Calm - N/A   Scattered Clouds
9:55 PM 77.0 °F - 73.4 °F 89% 29.97 in 7.0 mi Calm Calm - N/A   Clear
10:15 PM 76.3 °F - 73.2 °F 90% 29.97 in 10.0 mi Calm Calm - N/A   Clear
10:35 PM 75.6 °F - 72.9 °F 91% 29.97 in 10.0 mi Calm Calm - N/A   Clear
11:15 PM 74.5 °F - 72.7 °F 94% 29.97 in 7.0 mi Calm Calm - N/A   Scattered Clouds
11:35 PM 74.3 °F - 72.7 °F 95% 29.97 in 7.0 mi Calm Calm - N/A   Clear
11:55 PM 73.0 °F - 72.0 °F 96% 29.97 in 7.0 mi Calm Calm - N/A   Clear